Greenville, AL

11:57 PM CDT on September 24, 2017 (GMT -0500)
Greenville Municipal

Weather History for KPRN - February, 2011

Change the Weather History Date:

Thursday, February 24, 2011

  Actual Average Record
Temperature  
Mean Temperature 64 °F -  
Max Temperature 75 °F 64 °F 81 °F (1982)
Min Temperature 53 °F 39 °F 19 °F (1989)
Degree Days  
Heating Degree Days 1    
Growing Degree Days 14 (Base 50)    
Moisture  
Dew Point 56 °F    
Average Humidity 75    
Maximum Humidity 87    
Minimum Humidity 59    
Precipitation  
Precipitation 0.00 in - - ()
Sea Level Pressure  
Sea Level Pressure 30.00 in    
Wind  
Wind Speed 8 mph (South)    
Max Wind Speed 15 mph    
Max Gust Speed 25 mph    
Visibility 9 miles    
Events Rain    
Averages and records for this station are not official NWS values.
T = Trace of Precipitation, MM = Missing Value Source: NWS Daily Summary

Daily Weather History Graph

Daily Weather History Graph

Search for Another Location

Airport or City:

Trip Planner

Search our weather history database for the weather conditions in past years. The results will help you decide how hot, cold, wet, or windy it might be!

Date:

Astronomy

Feb. 24, 2011 Rise Set
Actual Time 6:19 AM CST 5:40 PM CST
Civil Twilight 5:54 AM CST 6:04 PM CST
Nautical Twilight 5:26 AM CST 6:33 PM CST
Astronomical Twilight 4:58 AM CST 7:01 PM CST
Moon 12:02 AM CST (2/24) 10:24 AM CST (2/24)
Length of Visible Light 12h 09m
Length of Day
11h 20m
Waning Gibbous, 53% of the Moon is Illuminated
Feb 24
Waning Gibbous
Feb 24
Last Quarter
Mar 4
New
Mar 12
First Quarter
Mar 19
Full

Hourly Weather History & Observations

Time (CST) Temp. Dew Point Humidity Pressure Visibility Wind Dir Wind Speed Gust Speed Precip Events Conditions
12:56 AM 55.0 °F 48.0 °F 77% 30.11 in 10.0 mi SE 3.5 mph - N/A   Clear
1:56 AM 54.0 °F 48.0 °F 80% 30.10 in 10.0 mi ESE 3.5 mph - N/A   Clear
2:56 AM 54.0 °F 46.9 °F 77% 30.08 in 10.0 mi ESE 4.6 mph - N/A   Clear
3:56 AM 54.0 °F 45.0 °F 72% 30.08 in 10.0 mi SE 4.6 mph - N/A   Clear
4:56 AM 54.0 °F 43.0 °F 66% 30.08 in 10.0 mi SE 3.5 mph - N/A   Clear
5:56 AM 53.1 °F 43.0 °F 69% 30.09 in 9.0 mi SE 4.6 mph - N/A   Clear
6:56 AM 53.1 °F 44.1 °F 71% 30.09 in 7.0 mi ESE 3.5 mph - N/A   Clear
7:56 AM 55.9 °F 48.0 °F 75% 30.10 in 8.0 mi SSE 4.6 mph - N/A   Clear
8:56 AM 62.1 °F 53.1 °F 72% 30.09 in 10.0 mi SSE 10.4 mph - N/A   Clear
9:56 AM 66.0 °F 55.0 °F 68% 30.09 in 10.0 mi SSE 8.1 mph 17.3 mph N/A   Clear
10:56 AM 72.0 °F 57.0 °F 59% 30.07 in 10.0 mi South 6.9 mph - N/A   Clear
11:47 AM 73.0 °F 60.1 °F 64% 30.05 in 10.0 mi South 15.0 mph 21.9 mph N/A   Mostly Cloudy
11:56 AM 75.0 °F 60.1 °F 60% 30.04 in 10.0 mi South 11.5 mph - N/A   Mostly Cloudy
12:20 PM 73.9 °F 60.1 °F 62% 30.03 in 10.0 mi SSW 11.5 mph 18.4 mph N/A   Mostly Cloudy
12:49 PM 72.0 °F 60.1 °F 66% 30.02 in 10.0 mi South 12.7 mph 20.7 mph N/A   Mostly Cloudy
12:56 PM 71.1 °F 60.1 °F 68% 30.01 in 10.0 mi South 13.8 mph 21.9 mph N/A   Mostly Cloudy
1:19 PM 69.1 °F 60.1 °F 73% 30.01 in 5.0 mi SSW 11.5 mph 19.6 mph 0.00 in Rain Light Rain
1:56 PM 70.0 °F 60.1 °F 71% 29.99 in 6.0 mi South 11.5 mph 16.1 mph 0.00 in   Haze
2:28 PM 69.1 °F 60.1 °F 73% 29.98 in 6.0 mi SSW 11.5 mph 17.3 mph N/A   Haze
2:56 PM 71.1 °F 61.0 °F 70% 29.96 in 9.0 mi South 8.1 mph 18.4 mph N/A   Partly Cloudy
3:47 PM 70.0 °F 60.1 °F 71% 29.95 in 8.0 mi South 9.2 mph 20.7 mph N/A   Mostly Cloudy
3:56 PM 70.0 °F 60.1 °F 71% 29.94 in 8.0 mi South 15.0 mph 20.7 mph N/A   Scattered Clouds
4:56 PM 69.1 °F 61.0 °F 75% 29.94 in 8.0 mi South 12.7 mph 17.3 mph N/A   Mostly Cloudy
5:11 PM 68.0 °F 61.0 °F 78% 29.94 in 8.0 mi South 13.8 mph 20.7 mph N/A   Scattered Clouds
6:21 PM 66.0 °F 61.0 °F 84% 29.92 in 10.0 mi South 13.8 mph 23.0 mph N/A   Overcast
6:56 PM 64.9 °F 60.1 °F 84% 29.91 in 10.0 mi South 15.0 mph 21.9 mph N/A   Mostly Cloudy
7:12 PM 64.9 °F 60.1 °F 84% 29.91 in 10.0 mi South 15.0 mph 25.3 mph N/A   Scattered Clouds
7:26 PM 64.9 °F 60.1 °F 84% 29.92 in 10.0 mi South 8.1 mph 19.6 mph N/A   Mostly Cloudy
7:56 PM 64.9 °F 60.1 °F 84% 29.92 in 10.0 mi South 11.5 mph 17.3 mph N/A   Overcast
8:56 PM 64.9 °F 60.1 °F 84% 29.93 in 10.0 mi South 10.4 mph 18.4 mph 0.00 in   Overcast
9:56 PM 64.9 °F 60.1 °F 84% 29.91 in 10.0 mi South 11.5 mph - N/A   Mostly Cloudy
10:09 PM 64.9 °F 61.0 °F 87% 29.92 in 10.0 mi South 9.2 mph 17.3 mph N/A   Overcast
10:56 PM 64.9 °F 61.0 °F 87% 29.88 in 10.0 mi South 11.5 mph 21.9 mph N/A   Overcast
11:56 PM 66.0 °F 62.1 °F 87% 29.85 in 10.0 mi South 11.5 mph 20.7 mph N/A   Overcast